CW8081 Weather Reports


time (UTC)temp
F
wind
direction
speed
knots
gust
knots
rain 1hr
in
rain 24hr
in
rain mn
in
humidity
%
barometer
mb
20260507191105 64 0 0.0 2.6 0.00 0.01 0.01 77 1016.7
20260507190604 64 0 0.0 0.9 0.00 0.01 0.01 76 1016.7
20260507190104 64 0 0.0 0.9 0.00 0.01 0.01 76 1016.5
20260507184105 65 0 0.0 0.0 0.00 0.01 0.01 75 1016.5
20260507183104 65 0 0.0 0.0 0.00 0.01 0.01 75 1016.5
20260507181604 66 0 0.0 0.0 0.00 0.01 0.01 74 1016.5
20260507174605 66 0 0.0 0.0 0.00 0.01 0.01 73 1016.5
20260507173604 67 0 0.0 0.0 0.00 0.01 0.01 73 1016.5
20260507171604 67 0 0.0 0.0 0.00 0.01 0.01 71 1016.5
20260507171104 67 0 0.0 0.0 0.00 0.01 0.01 71 1016.5
20260507164604 67 0 0.0 0.0 0.00 0.01 0.01 70 1016.5
20260507163105 67 0 0.0 0.0 0.00 0.01 0.01 71 1016.5
20260507161604 67 0 0.0 0.0 0.00 0.01 0.01 71 1016.6
20260507161104 67 0 0.0 0.0 0.00 0.01 0.01 72 1016.6
20260507160605 67 0 0.0 0.0 0.00 0.01 0.01 72 1016.6
20260507160105 67 0 0.0 0.0 0.00 0.01 0.01 72 1016.6
20260507154605 67 0 0.0 0.0 0.00 0.01 0.01 75 1016.5
20260507154105 67 0 0.0 0.0 0.00 0.01 0.01 76 1016.6
20260507153604 67 0 0.0 0.0 0.00 0.01 0.01 76 1016.6
20260507153104 67 0 0.0 0.0 0.00 0.01 0.01 76 1016.8
20260507151605 68 0 0.0 0.0 0.00 0.01 0.01 75 1016.8
20260507150104 68 0 0.0 0.0 0.00 0.01 0.01 72 1016.7
20260507144604 69 358 0.0 0.0 0.00 0.01 0.01 70 1016.8
20260507143604 69 0 0.0 0.0 0.00 0.01 0.01 70 1016.8
20260507140604 70 0 0.0 0.9 0.00 0.01 0.01 67 1016.6
20260507134104 68 339 0.0 0.0 0.00 0.01 0.01 73 1016.7
20260507133604 68 298 0.0 0.0 0.00 0.01 0.01 73 1016.7
20260507130104 68 0 0.0 0.0 0.00 0.01 0.01 76 1016.7
20260507124104 68 288 0.0 0.0 0.00 0.01 0.01 75 1017.9
20260507123604 68 316 0.0 0.0 0.00 0.01 0.01 75 1017.9
20260507120104 68 304 0.0 0.0 0.00 0.01 0.01 77 1017.9
20260507114604 67 301 0.0 0.0 0.01 0.01 0.01 77 1017.9
20260507114104 68 301 0.0 0.0 0.01 0.01 0.01 76 1018.3
20260507113604 68 297 0.0 0.0 0.01 0.01 0.01 76 1018.3
20260507111104 68 296 0.0 1.7 0.01 0.01 0.01 74 1018.4
20260507110604 68 296 0.0 0.0 0.01 0.01 0.01 74 1018.4
20260507110105 68 296 0.0 0.0 0.01 0.01 0.01 74 1018.4
20260507104604 69 297 0.0 0.0 0.00 0.00 0.00 71 1018.3
20260507104104 69 297 0.0 0.0 0.00 0.00 0.00 70 1018.3
20260507103605 69 297 0.0 0.0 0.00 0.00 0.00 69 1018.3
20260507101104 69 280 0.0 0.0 0.00 0.00 0.00 67 1017.8
20260507100604 69 326 0.0 0.0 0.00 0.00 0.00 67 1017.8
20260507093104 69 0 0.0 0.0 0.00 0.00 0.00 66 1017.8
20260507091104 67 0 0.0 0.0 0.00 0.00 0.00 68 1017.4
20260507083604 66 0 0.0 0.0 0.00 0.00 0.00 74 1017.2
20260507083104 67 0 0.0 0.0 0.00 0.00 0.00 76 1016.6
20260507081604 66 0 0.0 0.0 0.00 0.00 0.00 77 1016.6
20260507080604 66 0 0.0 0.0 0.00 0.00 0.00 76 1016.6
20260507074104 66 352 0.0 0.0 0.00 0.00 0.00 75 1016.6
20260507073104 67 0 0.0 0.0 0.00 0.00 0.00 73 1016.6
20260507071604 67 236 0.0 0.0 0.00 0.00 0.00 74 1016.6
20260507070104 66 0 0.0 0.0 0.00 0.00 0.00 75 1016.6
20260507064604 66 0 0.0 0.0 0.00 0.00 0.00 74 1016.6
20260507064104 65 0 0.0 0.0 0.00 0.00 0.00 73 1016.6
20260507063104 65 0 0.0 0.0 0.00 0.00 0.00 73 1016.6
20260507060604 65 0 0.0 0.0 0.00 0.00 0.00 77 1016.0
20260507060105 64 5 0.0 0.0 0.00 0.00 0.00 77 1016.0
20260507054104 63 5 0.0 0.0 0.00 0.00 0.00 79 1016.0
20260507051108 61 5 0.0 0.0 0.00 0.00 0.00 84 1016.0
20260507050604 61 5 0.0 0.0 0.00 0.00 0.00 84 1016.0
20260507050104 60 5 0.0 0.0 0.00 0.00 0.00 85 1016.0
20260507043604 59 5 0.0 0.0 0.00 0.00 0.00 86 1015.9
20260507041604 57 5 0.0 0.0 0.00 0.00 0.00 86 1015.7
20260507040604 57 5 0.0 0.0 0.00 0.00 0.00 86 1015.7
20260507034605 57 5 0.0 0.0 0.00 0.00 0.00 85 1015.7
20260507033604 57 5 0.0 0.0 0.00 0.00 0.00 85 1015.4
20260507030104 57 5 0.0 0.9 0.00 0.00 0.00 85 1015.4
20260507024104 57 5 0.0 0.0 0.00 0.00 0.00 85 1015.2
20260507020104 58 5 0.0 0.9 0.00 0.00 0.00 85 1014.8
20260507014604 58 5 0.0 0.9 0.00 0.00 0.00 84 1014.8
20260507011104 59 5 0.0 0.0 0.00 0.00 0.00 84 1014.8
20260507010604 59 5 0.0 0.0 0.00 0.00 0.00 83 1014.8
20260507003604 59 5 0.0 0.0 0.00 0.00 0.00 84 1014.8
20260507001104 59 5 0.0 0.9 0.00 0.00 0.00 84 1014.8
20260507000105 59 5 0.0 0.9 0.00 0.00 0.00 84 1014.8
20260506234105 60 5 0.0 0.0 0.00 0.00 0.00 83 1015.0
20260506230105 60 5 0.0 0.0 0.00 0.00 0.00 82 1015.1
20260506221104 62 5 0.0 0.0 0.00 0.00 0.00 83 1015.2
20260506220104 62 5 0.0 0.0 0.00 0.00 0.00 83 1015.2
20260506211604 64 357 0.0 0.0 0.00 0.00 0.00 83 1015.2
20260506211106 64 0 0.0 0.0 0.00 0.00 0.00 83 1015.2
20260506210105 64 355 0.0 0.0 0.00 0.00 0.00 83 1015.2
20260506204604 64 0 0.0 0.0 0.00 0.00 0.00 84 1015.1
20260506204104 64 266 0.0 0.0 0.00 0.00 0.00 84 1015.1
20260506201604 64 356 0.0 0.0 0.00 0.00 0.00 84 1014.8
20260506200604 64 296 0.0 0.0 0.00 0.00 0.00 84 1014.8
20260506194604 63 0 0.0 0.0 0.00 0.00 0.00 84 1014.4
20260506193604 63 0 0.0 0.0 0.00 0.00 0.00 83 1014.4